Regional Weather Roundup
Issued by NWS Sioux Falls, SD

Home | Current Version | Previous Version | Graphics & Text | Print | Product List | Glossary On
Versions: 1 2 3 4 5 6 7 8 9 10 11 12 13 14 15 16 17 18 19 20 21 22 23 24 25 26 27 28 29 30 31 32 33 34 35 36 37 38 39 40 41 42 43 44 45 46 47 48 49 50
000
ASUS43 KFSD 301210
RWRFSD

WEATHER ROUNDUP FOR SE SOUTH DAKOTA/SW MINNESOTA/NW IOWA
NATIONAL WEATHER SERVICE SIOUX FALLS SD
700 AM CDT SAT AUG 30 2014

NOTE: "FAIR" INDICATES FEW OR NO CLOUDS BELOW 12,000 FEET WITH NO
SIGNIFICANT WEATHER AND OR OBSTRUCTIONS TO VISIBILITY.


SDZ038>040-050-052>070-301300-
SOUTHEAST SOUTH DAKOTA

CITY           SKY/WX    TMP DP  RH WIND       PRES   REMARKS
CHAMBERLAIN    MOCLDY    53  53  99 CALM      29.98R FOG
6HR MIN TEMP:  53; 6HR MAX TEMP:  61;

HURON          CLOUDY    59  57  93 NW6       29.94R
6HR MIN TEMP:  59; 6HR MAX TEMP:  62;

MADISON        CLOUDY    61  61 100 NW9       29.92R
MITCHELL       MOCLDY    59  58  96 NW5       29.95R
6HR MIN TEMP:  59; 6HR MAX TEMP:  63;

SIOUX FALLS    CLOUDY    63  61  93 NW8       29.91R FOG
6HR MIN TEMP:  63; 6HR MAX TEMP:  67;

WINNER         FOG       53  53 100 CALM      29.98S VSB 3/4
YANKTON        PTCLDY    59  57  94 NW9       29.94R
$$

MNZ071-072-080-081-089-090-097-098-301300-
SOUTHWEST MINNESOTA

CITY           SKY/WX    TMP DP  RH WIND       PRES   REMARKS
FAIRMONT       CLOUDY    63  55  77 NW10      29.85R
JACKSON        CLOUDY    64  63  94 NW6       29.88R FOG
LUVERNE        CLOUDY    64  63  94 NW8       29.90R
MARSHALL       CLOUDY    61  57  88 NW14      29.88R
6HR MIN TEMP:  61; 6HR MAX TEMP:  66;

MONTEVIDEO     CLOUDY    61  61 100 NW7       29.89R FOG
PIPESTONE      CLOUDY    63  63 100 N7        29.91R FOG
REDWOOD FALLS  CLOUDY    64  64 100 NW14      29.86R FOG
TRACY          FOG       62  61  97 NW9       29.89R VSB 1
WINDOM         CLOUDY    64  63  94 NW12      29.88R FOG
WORTHINGTON    CLOUDY    64  63  94 N9        29.90R
$$

IAZ001>003-012>014-020>022-031-032-NEZ013-014-SDZ071-301300-
NORTHWEST IOWA

CITY           SKY/WX    TMP DP  RH WIND       PRES   REMARKS
CHEROKEE       CLOUDY    64  64 100 CALM      29.89R FOG
DENISON        CLOUDY    66  66 100 W5        29.88R FOG
ESTHERVILLE    CLOUDY    65  64  97 NW9       29.87R
LE MARS          N/A     66  66 100 NW6       29.91R
ORANGE CITY    CLOUDY    66  64  94 NW8       29.90R FOG
SHELDON        CLOUDY    63  63 100 NW8       29.88R FOG
SIOUX CITY     CLOUDY    65  64  97 NW8       29.91R FOG
6HR MIN TEMP:  64; 6HR MAX TEMP:  67;

SPENCER        CLOUDY    64  63  96 NW12      29.88R FOG
6HR MIN TEMP:  62; 6HR MAX TEMP:  65; 6HR PCP: TRACE;

STORM LAKE     FOG       64  64 100 NW5       29.89R VSB<1/4
$$

ABBREVIATIONS USED IN REMARKS
   TC - TEMPERATURE IN CELSIUS
  WCI - WIND CHILL INDEX
   HX - HEAT INDEX
  VSB - VISIBILITY




USA.gov is the U.S. government's official web portal to all federal, state and local government web resources and services.